User: anonymous   Login
Location: CCZU
(31.6840°N, 119.9550°E)
Time: 15:53:23
(UTC+08:00)
Language:

Tiangong - Orbit

View from above orbital plane
View from above orbital plane
View from above satellite
View from above satellite

Ground track
Ground track

The orbit data is extracted from the following two-line orbital elements,

1 48274U 21035A   22027.83486839  .00014585  00000-0  17127-3 0  9992
2 48274  41.4704 354.1240 0004342 192.5696 251.5848 15.61160507 42828
Epoch (UTC): 27 January 2022 20:02:12
Eccentricity: 0.0004342
inclination: 41.4704°
perigee height: 381 km
apogee height: 387 km
right ascension of ascending node: 354.1240°
argument of perigee: 192.5696°
revolutions per day: 15.61160507
mean anomaly at epoch: 251.5848°
orbit number at epoch: 4282

The dashed part of the orbit path shows where the satellite is in the earth's shadow,  

DLR